Flag for Chile Weather past 2 weeks in Easter Island, Chile

Now
68 °F

Broken clouds.


Feels Like: 68 °F
Forecast: 63 / 69 °F
Wind: 14 mph from Northwest

Location: Isla De Pascua

Current Time: Aug 23, 2014 at 12:07:55 PM

Latest Report: Aug 23, 2014 at 11:00 AM


Visibility: N/A

Pressure: 30.12 "Hg

Humidity: 73%

Dew point: 59 °F

Location of Easter IslandLocation

Historic Weather in Easter Island — Graph

°F

Easter Island temperature yesterday

Maximum temperature yesterday: 68 °F (at 2:00 PM)
Minimum temperature yesterday: 54 °F (at 12:00 AM)
Average temperature yesterday: 62 °F

Past Weeks' High & Low Weather Summary

 TemperatureHumidityPressure
High72 °F (Aug 10, 1:00 PM)94% (Aug 8, 6:00 PM)30.33 "Hg (Aug 8, 6:00 PM)
Low52 °F (Aug 21, 11:00 PM)42% (Aug 19, 12:00 PM)29.71 "Hg (Aug 16, 6:00 AM)
Average63 °F71%30.07 "Hg
* Reported Aug 8 11:00 AM — Aug 23 11:00 AM, Easter Island, Weather by CustomWeather, © 2014

Note: Actual official high and low records may vary slightly from our data, if they occured in-between our weather recording intervals... More about our weather records

Advertising

Easter Island weather history for previous 24 hours

 ConditionsComfort  
Time TempWeatherWind HumidityBarometerVisibility
11:00 AM
Aug 23
68 °FBroken clouds.14 mph73%30.12 "HgN/A
10:00 AM68 °FBroken clouds.15 mph64%30.12 "HgN/A
9:00 AM66 °FPartly cloudy.14 mph68%30.12 "HgN/A
8:00 AM66 °FPassing clouds.14 mph64%30.12 "HgN/A
7:00 AM66 °FPartly cloudy.14 mph64%30.09 "HgN/A
6:00 AM66 °FPassing clouds.13 mph64%30.09 "HgN/A
5:00 AM66 °FPartly cloudy.12 mph60%30.12 "HgN/A
4:00 AM66 °FPartly cloudy.9 mph64%30.15 "HgN/A
3:00 AM64 °FPartly cloudy.8 mph68%30.18 "HgN/A
2:00 AM63 °FPartly cloudy.6 mph73%30.18 "HgN/A
1:00 AM63 °FPartly cloudy.7 mph73%30.21 "HgN/A
12:00 AM64 °FPartly cloudy.10 mph68%30.21 "HgN/A
11:00 PM
Aug 22
64 °FSprinkles. Partly cloudy.6 mph68%30.24 "Hg4 mi
10:00 PM66 °FPartly cloudy.7 mph60%30.24 "HgN/A
9:00 PM66 °FPartly cloudy.7 mph60%30.21 "HgN/A
8:00 PM64 °FPartly sunny.7 mph64%30.21 "HgN/A
7:00 PM64 °FPartly sunny.8 mph60%30.21 "HgN/A
6:00 PM66 °FPartly sunny.7 mph56%30.21 "HgN/A
5:00 PM66 °FPartly sunny.7 mph56%30.21 "HgN/A
4:00 PM68 °FScattered clouds.8 mph49%30.21 "HgN/A
3:00 PM68 °FPassing clouds.9 mph49%30.24 "HgN/A
2:00 PM68 °FPartly sunny.9 mph49%30.24 "HgN/A
1:00 PM66 °FPartly sunny.9 mph52%30.27 "HgN/A
12:00 PM66 °FPartly sunny.6 mph52%30.30 "HgN/A
Weather by CustomWeather, © 2014

See weather overviewHow to use our weather pages